Wind_Speed
19 20 20 20 21 21 22 23 23 24 24 25 26 27 28 28 29 29 30 31 31 32 32 33 33 33 33 33 33 33 33 33 34 34 35 35 35 36 36 36 36 36 36 36 36 35 35 35 34 34 34 34 34 33 33 33 32 31 31 32 32 33 33 34 35 35 36 36 37
19 19 20 20 21 21 22 23 23 24 25 26 27 27 28 29 29 30 31 31 32 32 33 34 34 34 34 33 33 33 32 32 33 33 33 33 33 33 33 33 33 33 33 33 33 33 33 32 32 31 32 32 32 32 32 32 31 31 30 31 31 31 32 33 34 34 35 35 36
19 19 20 20 21 22 22 23 24 25 26 27 28 28 29 29 30 31 31 32 33 34 34 35 35 35 34 33 32 32 31 31 31 31 31 31 30 29 29 29 29 29 30 30 30 30 30 29 29 29 30 31 32 32 33 32 31 30 30 30 31 31 31 32 33 33 34 34 35
18 19 20 20 21 22 23 24 24 25 26 27 28 29 30 31 31 32 33 34 34 35 35 35 35 34 33 32 31 30 29 29 28 28 27 27 26 26 26 26 27 27 27 27 27 27 27 27 27 28 29 30 31 31 31 29 27 27 28 30 30 30 31 32 32 32 32 33 33
18 19 20 21 22 23 23 24 25 26 27 28 29 30 31 32 33 34 34 35 36 36 36 35 34 33 32 30 28 27 26 25 25 24 24 24 24 24 24 24 25 25 25 25 25 25 24 24 25 26 27 27 26 25 24 23 23 24 26 27 27 27 27 27 27 28 28 29 31
19 20 21 21 22 23 24 25 26 27 28 29 30 31 32 33 34 35 35 36 36 36 35 34 33 31 29 28 26 25 24 23 22 22 22 23 23 23 23 23 23 23 23 23 22 22 22 22 22 23 24 25 25 24 24 23 23 23 23 22 22 22 21 22 22 22 23 25 26
19 20 21 22 23 24 25 26 27 28 29 30 31 32 33 34 35 35 36 36 36 34 33 32 30 29 27 26 25 24 23 22 22 22 22 22 22 23 22 22 22 22 21 20 20 19 19 19 21 22 23 24 25 26 25 25 25 23 21 21 22 22 22 21 21 21 21 22 23
19 20 21 22 23 24 25 27 28 29 30 31 32 32 33 34 34 35 35 35 34 32 31 29 28 26 25 24 24 23 23 22 21 21 21 20 20 20 21 21 21 20 19 18 18 18 19 19 20 22 23 24 25 26 27 28 28 26 23 22 22 21 19 19 20 20 21 23 24
20 21 22 23 24 25 26 27 28 29 30 31 32 32 33 33 34 34 34 33 31 30 29 27 25 25 24 24 24 23 22 21 20 20 19 19 18 18 19 20 20 20 20 19 19 20 21 22 22 23 23 24 26 28 30 32 31 30 28 27 26 27 26 25 23 23 24 24 25
20 22 23 24 25 26 27 28 29 30 31 31 32 32 32 32 32 32 31 31 30 29 27 25 25 25 25 25 24 23 22 21 20 19 20 20 21 21 22 23 23 23 23 23 24 24 26 28 29 30 31 32 33 34 35 35 34 33 32 29 29 29 30 30 29 29 29 29 29
21 22 23 24 25 26 27 28 30 30 31 31 31 31 32 31 31 30 30 30 29 27 26 25 25 25 25 25 24 23 23 22 22 23 24 25 26 26 27 28 28 28 29 29 29 30 31 32 33 33 34 34 35 35 35 34 34 32 31 29 28 28 29 30 30 31 31 32 32
21 22 24 25 26 27 28 29 29 30 30 31 31 31 32 31 30 30 29 29 27 26 26 25 24 24 24 24 24 24 24 24 24 25 26 27 28 29 30 31 31 32 32 32 32 31 31 31 30 31 31 31 31 31 31 31 30 29 28 27 26 26 26 27 27 28 29 30 30
22 23 24 25 26 27 28 29 29 30 30 31 31 32 32 32 31 29 28 27 27 26 25 24 23 23 23 24 24 24 24 24 24 25 25 26 27 28 29 29 30 30 30 29 28 27 26 26 25 25 25 26 26 26 26 25 25 24 24 24 25 25 25 25 25 25 26 26 27
22 23 24 25 26 27 28 29 30 30 31 32 32 33 33 32 31 29 28 26 25 24 23 22 22 22 22 23 23 23 23 23 23 22 22 23 23 23 24 24 24 24 24 23 22 22 21 21 21 21 21 22 22 22 21 21 21 22 23 23 24 24 24 24 24 24 24 24 25
22 23 25 25 26 27 28 29 30 31 32 32 33 34 34 32 30 29 27 25 23 23 22 22 22 21 21 22 22 22 21 21 21 20 20 20 20 20 20 20 20 20 20 19 19 19 18 19 19 19 19 19 19 19 19 19 20 21 21 22 22 23 23 23 23 23 23 24 24
23 24 25 26 26 27 28 29 31 32 32 33 34 33 32 31 29 27 25 23 23 22 22 22 22 22 21 21 21 20 20 20 20 20 20 20 19 19 19 19 19 19 18 18 18 18 17 17 17 17 17 18 18 18 18 19 19 20 21 21 22 22 22 23 23 23 23 24 24
23 24 25 26 27 27 28 30 31 32 32 33 33 32 30 29 27 25 24 23 23 23 22 22 22 22 22 21 21 20 20 20 20 20 20 20 20 20 19 19 19 19 18 18 18 17 17 17 16 16 17 17 18 18 19 19 20 20 21 21 22 22 23 23 23 23 23 24 25
23 24 25 26 26 27 28 29 30 31 32 32 32 30 29 27 25 24 24 23 23 22 22 22 22 22 22 21 21 21 21 21 21 21 21 20 20 20 20 19 19 19 19 18 18 17 17 17 17 17 17 18 18 19 19 20 20 21 21 22 22 23 23 23 24 24 24 24 25
23 24 25 25 26 27 28 29 30 31 31 31 30 29 27 26 25 24 23 23 22 22 22 22 22 22 21 21 21 21 21 21 21 21 21 20 20 20 20 19 19 19 18 18 18 18 17 17 17 17 18 18 19 20 20 21 21 22 23 23 23 24 24 24 24 24 24 24 24
23 24 24 25 26 26 27 28 29 30 30 30 29 28 26 25 24 23 23 22 22 22 22 22 22 22 22 21 21 21 21 21 21 21 21 21 20 20 19 19 19 19 18 18 18 18 18 18 18 18 18 19 19 20 21 21 22 23 24 24 24 24 24 24 23 23 23 23 24
23 23 24 24 25 26 27 28 29 30 30 29 28 27 26 25 24 23 22 22 22 22 21 21 21 21 21 21 21 21 21 21 21 21 21 20 20 19 19 19 19 19 19 19 19 19 19 19 19 19 19 19 20 21 21 22 23 23 24 23 23 23 23 23 23 23 23 23 24
22 22 23 24 24 25 26 27 28 29 29 28 27 26 25 24 23 22 22 22 21 21 21 21 21 21 21 21 21 21 21 21 20 20 20 20 20 19 19 19 19 19 19 19 19 19 19 20 20 20 20 20 21 22 23 23 23 22 22 22 22 22 23 23 24 24 25 25 26
21 22 22 23 24 25 26 27 28 28 28 27 26 26 25 24 23 22 21 21 20 20 20 20 20 20 20 20 20 20 20 20 20 19 19 19 19 18 18 18 18 18 18 19 18 18 19 19 19 20 20 21 22 22 23 23 22 21 21 21 21 22 23 24 25 26 26 27 27
20 21 22 22 23 24 25 26 27 27 26 26 26 25 24 23 22 21 21 20 20 20 20 20 20 20 20 19 19 19 19 19 19 19 18 18 18 18 18 18 18 18 18 18 18 17 17 17 18 18 19 20 21 21 21 21 20 20 21 21 23 24 26 26 27 28 29 29 30
19 20 21 22 22 23 24 25 25 26 25 25 25 24 23 22 21 21 20 20 20 20 20 20 20 20 19 19 18 18 18 18 18 18 18 18 17 18 18 18 18 19 19 18 18 17 17 17 17 17 19 20 22 23 24 25 25 26 27 27 29 30 31 32 32 32 33 33 34
19 19 20 21 22 23 23 24 24 25 25 24 24 23 22 21 21 20 20 21 21 21 21 21 20 20 19 19 18 18 17 17 17 17 18 18 18 18 19 19 19 20 20 20 20 20 20 20 20 21 22 23 24 26 27 28 29 29 30 31 32 33 34 35 36 36 37 37 37
18 18 19 20 21 22 23 23 24 24 24 23 23 22 21 21 20 20 21 21 21 21 21 21 20 20 19 19 18 18 18 17 17 17 18 18 19 19 19 20 20 21 21 22 22 22 23 23 24 24 25 26 27 28 29 30 30 31 31 31 32 33 34 35 35 36 36 36 37
17 18 19 20 21 22 22 23 23 23 23 22 22 21 21 21 21 21 21 21 21 21 21 21 20 20 20 19 19 18 18 18 18 17 18 18 19 19 20 20 21 22 22 22 22 23 23 24 24 25 25 26 28 28 29 30 30 30 30 31 31 31 31 32 32 33 33 34 34
17 18 19 20 21 21 22 22 22 22 22 22 21 21 21 21 21 21 21 21 21 21 21 21 21 21 20 20 20 19 19 18 18 18 18 18 19 19 20 20 21 21 21 21 21 21 22 22 23 23 24 24 26 26 27 28 28 28 28 29 29 29 30 30 31 32 32 33 33
16 18 19 20 20 21 21 21 21 21 21 21 21 21 21 21 21 21 22 22 22 21 21 22 21 21 21 20 20 20 20 19 19 19 19 19 20 20 20 20 20 20 20 19 19 20 20 20 21 21 21 22 23 23 24 25 25 26 27 27 28 29 29 30 31 32 32 33 34
17 18 19 20 20 21 21 21 21 21 21 21 21 21 21 21 22 22 22 22 22 22 22 22 22 21 21 21 21 21 21 21 20 20 20 21 21 21 21 20 20 20 19 19 19 19 19 20 20 20 20 20 21 22 23 24 24 25 26 27 28 28 29 30 31 32 32 33 34
17 18 19 19 20 20 20 20 20 21 21 21 21 21 21 22 22 22 22 22 22 22 22 22 21 21 21 21 21 21 21 21 21 21 21 21 21 21 21 21 21 21 20 20 20 20 20 20 20 20 20 21 21 22 23 23 24 25 26 27 27 28 29 30 31 32 33 34 35
17 18 19 19 19 20 20 20 20 20 21 21 21 21 22 22 23 23 23 23 23 22 21 21 20 20 20 20 21 21 21 21 21 21 21 21 21 21 21 21 21 21 21 21 21 21 21 21 21 21 21 21 22 22 23 23 24 25 26 27 27 28 29 31 32 33 34 34 35
17 18 19 19 19 19 20 20 20 20 21 21 21 22 22 22 23 23 23 23 23 22 20 20 19 19 19 19 19 20 20 20 20 20 20 20 21 21 21 21 21 21 21 21 21 21 21 21 21 21 21 21 22 22 22 23 24 25 26 27 28 29 31 32 33 33 33 33 33
18 18 18 18 19 19 19 20 20 21 21 21 21 22 22 23 23 23 23 23 22 21 20 19 18 18 18 18 18 18 18 19 19 19 19 19 19 20 20 20 20 20 21 21 21 21 21 21 21 21 21 21 21 21 22 23 24 25 26 28 29 30 31 32 32 32 31 30 30
17 18 18 18 18 19 19 20 20 21 21 22 22 22 23 23 23 23 23 23 22 20 19 18 17 17 17 17 17 17 17 17 17 17 18 18 18 18 18 19 19 19 20 20 20 20 21 20 20 20 20 20 20 21 21 22 24 25 27 29 30 31 30 30 30 29 28 27 27
17 17 18 18 18 19 19 20 21 21 21 22 22 22 23 23 24 24 24 23 22 20 19 18 17 17 17 17 17 16 15 15 15 15 15 15 15 15 16 17 17 18 18 18 19 19 19 19 19 19 19 19 19 20 21 22 24 26 27 29 29 29 29 28 27 26 25 25 24
17 17 18 18 18 19 19 20 21 21 21 22 22 23 23 24 24 24 24 23 22 20 19 17 17 17 17 17 16 15 14 13 13 13 13 12 12 13 13 14 15 15 16 16 16 17 17 17 17 17 17 17 18 19 21 22 24 26 27 28 28 28 27 26 25 25 23 23 22
17 17 17 18 18 19 19 20 21 21 21 22 22 23 24 24 24 24 23 22 20 19 18 17 17 16 16 16 16 15 14 12 11 11 11 10 11 11 12 12 13 13 14 14 14 14 14 15 15 15 15 16 17 18 20 22 24 25 26 27 27 27 26 25 25 24 23 21 20
16 17 17 18 18 19 19 20 20 21 21 22 22 23 24 24 24 23 22 20 18 17 17 16 16 16 16 16 16 15 14 12 10 9 10 10 10 10 11 11 11 11 11 11 11 12 12 12 13 13 14 15 16 18 20 21 23 24 25 26 27 27 27 26 25 24 23 21 20
16 16 17 18 18 19 19 20 20 20 21 21 22 23 23 23 22 22 20 19 17 16 16 16 16 16 16 16 16 15 14 12 11 10 10 10 11 11 11 11 11 11 10 10 9 10 10 11 11 12 13 14 16 17 19 20 22 23 24 25 26 27 28 28 27 25 23 22 20
Wind_Direction
279 280 282 284 286 288 291 293 295 296 297 298 298 298 298 298 298 298 298 298 298 298 298 298 297 296 295 294 292 291 289 288 287 286 285 284 283 282 281 280 279 278 277 276 275 274 273 272 272 271 271 271 271 270 270 269 268 268 267 265 264 262 261 259 257 256 254 252 250
282 284 286 288 291 293 294 295 297 297 298 298 298 298 299 299 299 300 300 300 300 300 300 300 299 298 297 295 293 291 289 288 287 286 285 284 283 281 280 279 278 277 276 275 274 273 273 272 271 271 271 271 271 271 270 270 269 268 267 266 264 262 261 260 258 257 255 254 251
286 288 291 293 294 295 295 296 297 297 298 298 299 300 301 301 302 302 302 303 303 303 303 302 301 300 299 297 295 292 291 289 288 287 286 285 283 282 280 279 278 277 276 275 274 274 273 273 272 272 272 272 273 273 273 273 271 269 267 266 265 264 264 263 261 259 258 256 254
290 293 294 295 296 296 296 297 298 299 299 301 302 303 304 304 305 305 306 306 306 305 305 304 303 302 300 298 296 294 292 291 290 288 287 286 284 283 282 281 279 278 276 275 275 274 274 273 273 272 272 273 274 276 276 275 273 271 269 269 269 269 269 268 266 264 261 259 256
294 295 296 295 295 296 297 299 300 302 303 304 306 307 307 308 308 308 308 308 308 307 307 306 305 303 302 300 298 296 294 292 290 288 287 286 285 284 283 281 279 278 277 275 274 274 273 272 272 271 271 272 273 273 274 275 276 276 276 275 275 275 274 272 269 266 263 260 258
295 296 296 295 296 298 300 302 304 306 307 308 309 310 310 310 310 311 311 310 310 309 308 307 306 305 303 302 300 298 295 292 290 288 286 286 285 284 282 280 279 277 276 275 274 273 272 271 271 271 271 272 273 273 275 278 282 284 285 285 283 281 278 274 272 269 266 262 259
295 295 296 297 300 303 305 307 309 310 311 312 312 312 312 312 312 312 312 312 311 311 309 308 306 305 304 302 300 298 294 292 290 289 288 288 287 286 284 282 280 279 278 278 277 276 276 276 276 276 277 277 277 277 279 283 286 287 286 284 283 283 281 279 278 277 273 269 264
294 296 299 302 305 308 310 312 313 314 314 314 314 314 313 313 313 313 313 313 312 310 308 306 304 303 302 301 298 296 293 292 291 291 291 290 289 288 286 285 284 283 282 282 281 280 280 279 277 275 274 274 274 277 280 284 287 284 278 271 267 266 266 267 270 271 271 270 268
298 301 305 308 311 313 314 315 316 316 316 316 315 315 315 315 315 315 314 313 312 309 306 303 301 300 299 298 297 295 293 291 291 290 289 287 284 281 279 278 277 278 278 278 277 276 275 275 273 270 269 270 272 275 279 282 284 282 278 269 261 256 254 252 254 256 259 262 264
305 307 310 313 315 316 317 317 317 317 317 316 316 316 316 316 316 315 315 313 311 308 304 300 298 297 297 297 297 295 292 288 283 279 276 274 270 267 267 267 268 269 271 272 273 274 274 275 274 273 273 274 275 277 279 281 281 282 280 275 267 261 257 254 253 254 256 258 260
310 312 314 316 318 318 318 318 318 317 317 317 316 316 316 317 316 316 314 313 311 307 303 299 297 297 297 298 298 297 293 287 280 274 270 268 267 267 268 269 270 271 272 274 276 277 277 276 275 275 274 274 275 276 277 278 279 279 279 277 273 268 263 260 258 258 258 260 261
314 316 318 319 319 319 319 318 318 317 317 317 317 317 318 318 317 315 314 313 312 309 305 302 300 299 299 300 299 298 296 292 287 282 277 274 273 272 273 273 274 276 277 279 280 280 280 278 277 276 275 274 274 274 275 276 276 277 277 276 274 272 269 266 264 262 262 262 262
317 319 319 319 319 319 318 317 317 317 317 318 318 318 319 319 317 316 315 314 313 312 310 306 304 302 301 300 299 297 295 293 291 288 284 281 279 278 278 278 279 279 281 282 282 282 282 280 279 278 277 276 276 275 275 276 276 276 276 275 273 272 272 271 269 267 266 265 264
320 320 320 319 318 318 317 317 317 317 318 319 319 319 320 320 318 317 316 315 314 314 312 310 306 303 301 299 297 295 294 293 292 291 290 288 287 286 285 284 284 284 284 285 284 284 283 282 281 281 280 280 279 278 278 277 276 275 274 273 271 271 271 272 271 270 269 267 266
320 320 319 318 317 317 317 317 318 318 319 320 320 321 321 320 319 318 317 316 314 313 311 310 307 304 301 299 298 297 296 296 296 295 295 294 293 292 291 290 289 288 288 287 286 285 284 283 283 282 282 282 282 282 281 279 277 276 274 273 272 272 272 272 272 270 269 268 267
320 318 318 317 317 317 318 318 319 320 321 322 322 322 322 321 320 319 317 316 314 313 311 310 308 307 306 304 303 303 302 302 301 300 299 298 297 296 295 294 292 291 291 290 289 288 287 286 286 285 285 285 284 284 283 282 280 279 278 277 276 276 275 274 273 271 270 269 268
318 317 317 318 318 318 319 320 321 322 323 323 323 323 323 322 321 319 318 316 315 314 313 312 311 311 310 310 309 308 308 306 305 303 302 300 299 298 297 295 294 294 293 292 291 290 290 289 288 287 286 286 285 284 283 283 282 281 280 280 279 278 277 276 275 274 273 271 270
317 318 318 319 319 320 321 322 323 324 324 324 325 324 323 322 321 320 318 317 316 316 315 314 314 314 314 313 312 311 310 308 305 303 302 301 299 298 296 295 295 294 294 294 293 291 290 289 288 286 286 285 284 284 283 283 282 282 281 280 280 279 278 277 276 275 274 273 271
318 318 319 320 320 321 323 324 325 326 326 326 326 326 325 323 322 320 319 318 318 317 317 316 316 316 315 315 313 311 309 307 305 303 301 300 298 297 296 296 296 296 295 295 293 291 289 287 286 285 284 284 284 284 283 283 283 283 282 281 280 279 278 277 276 275 274 273 272
318 319 320 321 322 324 325 326 327 328 328 328 328 327 326 324 322 321 320 319 319 318 318 318 318 317 316 315 313 311 309 307 305 303 302 300 299 298 297 298 298 297 297 295 293 290 288 285 284 283 282 283 283 284 283 283 283 282 282 281 280 279 278 276 275 275 274 273 272
319 321 322 323 324 326 328 329 330 331 331 330 329 328 326 324 323 321 320 320 320 320 320 319 319 318 317 315 313 311 309 307 305 304 302 301 300 300 300 300 300 299 297 295 293 290 287 284 282 281 281 282 282 283 283 283 283 283 282 282 282 281 280 279 279 279 278 277 275
321 322 324 325 327 329 331 333 333 334 333 332 330 329 327 325 324 322 321 321 321 321 321 321 320 319 317 316 313 311 309 307 305 304 303 302 302 302 301 301 299 298 296 294 293 291 289 286 284 282 282 283 285 286 287 288 288 288 288 287 286 284 283 282 281 280 279 277 276
323 325 327 329 331 333 335 336 336 336 335 333 332 330 328 326 325 324 323 323 323 323 323 323 322 320 319 316 313 311 309 307 305 303 303 303 303 303 302 300 298 296 295 294 293 293 292 291 289 289 290 292 294 295 296 296 295 293 290 287 284 281 278 275 273 271 271 270 271
326 328 330 332 335 337 338 339 338 337 336 334 333 331 329 328 327 326 326 326 325 326 325 325 323 322 319 317 314 311 309 307 305 304 304 304 304 303 301 299 297 295 294 294 293 294 294 294 294 295 295 295 294 292 290 286 282 279 277 275 273 272 270 267 266 264 264 264 265
330 332 334 337 339 341 341 341 340 338 337 336 334 333 332 331 330 329 329 329 329 328 327 326 325 323 320 318 315 312 310 308 307 306 305 304 303 301 300 298 296 294 293 293 292 291 289 288 287 286 285 283 281 278 275 272 270 269 269 269 269 269 269 269 267 266 265 265 265
333 336 339 341 343 344 344 343 341 340 339 338 337 336 335 334 333 333 333 332 331 329 328 326 325 324 322 320 318 316 314 311 309 307 305 304 302 300 299 297 296 294 293 292 291 289 287 284 282 280 279 279 278 278 278 277 277 276 274 273 272 272 272 272 271 271 270 269 269
338 341 343 345 346 347 346 344 343 342 341 341 340 339 339 338 338 337 335 334 331 330 328 327 327 326 325 324 322 320 317 314 311 308 305 303 302 300 299 297 296 295 293 293 292 290 289 288 287 286 285 284 283 282 282 281 281 280 279 278 277 275 275 274 274 274 274 273 272
342 345 347 349 350 349 347 346 345 344 344 344 344 343 343 342 341 339 337 334 332 331 330 330 330 329 328 327 324 322 319 316 313 309 306 304 302 300 298 297 296 295 294 294 294 293 292 291 290 289 287 286 285 284 283 283 282 282 281 281 280 279 279 278 278 278 278 277 276
347 350 352 353 352 351 348 347 347 347 347 348 348 347 346 345 342 340 338 336 334 333 333 332 332 332 330 328 325 323 320 317 315 312 309 306 304 301 299 299 298 298 298 298 297 296 294 292 290 289 287 286 286 285 285 285 285 285 285 285 284 284 284 284 284 284 283 283 282
352 355 356 356 354 352 350 349 349 350 351 352 352 351 349 347 344 342 340 338 337 336 336 335 334 333 331 329 326 324 322 320 318 316 313 310 308 306 305 304 304 304 304 304 303 301 299 297 295 293 292 291 290 290 289 289 290 290 289 289 289 289 289 288 288 288 288 288 288
358 359 359 357 355 353 351 351 352 354 355 355 354 353 351 349 347 345 343 340 339 338 338 337 336 334 332 330 328 326 324 322 321 319 317 315 313 312 311 311 311 312 312 312 311 309 307 305 303 302 301 300 299 297 296 295 294 294 293 293 292 292 293 293 293 293 293 293 292
2 2 1 358 356 354 353 354 355 357 358 358 357 356 354 352 350 347 344 342 342 341 340 339 338 336 334 332 330 328 326 324 323 322 320 319 317 316 316 317 317 319 319 319 317 315 314 313 311 310 309 307 305 303 301 299 298 297 297 297 297 298 298 298 298 298 297 297 295
6 4 2 359 357 355 355 357 359 360 0 0 359 358 356 353 351 348 346 345 344 343 342 341 340 338 336 334 332 330 328 326 325 324 323 322 321 320 320 321 322 323 323 322 320 319 318 317 316 315 313 311 308 306 304 302 302 301 301 301 302 302 302 302 301 301 300 299 296
8 6 3 360 358 357 358 360 1 2 3 3 2 360 357 354 352 349 347 346 345 344 343 343 342 341 339 337 335 332 330 328 327 326 325 324 324 323 322 322 324 324 324 322 321 320 320 319 318 316 314 312 309 307 305 304 304 303 303 304 304 305 304 304 303 303 302 301 298
10 7 3 0 359 360 1 3 4 5 5 4 3 1 358 356 353 350 348 347 345 344 344 343 343 343 342 341 339 336 333 331 329 327 326 326 325 324 323 323 324 324 323 322 321 320 319 318 317 315 313 311 309 307 306 305 305 304 304 305 305 306 306 307 307 307 306 305 302
11 7 4 2 2 3 4 5 6 6 6 5 3 1 358 356 354 352 350 347 346 345 346 346 346 347 347 346 344 342 339 335 332 329 328 327 326 324 323 322 323 323 322 321 320 319 318 317 315 314 312 309 308 307 307 306 306 306 306 306 307 309 311 312 313 313 312 310 306
11 8 5 4 4 5 6 7 7 7 6 5 3 0 358 357 355 354 352 349 347 347 349 350 351 352 351 350 349 347 344 340 336 332 330 329 328 326 324 323 323 323 322 320 318 317 316 314 313 312 310 308 307 307 307 307 307 307 308 310 312 315 317 318 318 317 316 313 309
12 9 7 7 7 8 8 8 8 7 6 3 1 359 358 357 356 355 353 350 348 349 351 354 357 356 355 353 352 351 349 345 341 338 336 336 336 333 330 329 327 325 322 319 317 316 314 313 311 310 308 307 307 307 307 307 308 310 312 315 318 320 322 322 322 320 318 315 312
14 11 10 9 9 10 10 10 9 7 4 2 359 358 357 357 357 356 354 352 350 351 353 358 0 360 357 356 355 355 354 352 348 346 348 351 350 346 342 340 336 330 325 321 318 316 314 312 311 309 308 307 308 308 309 309 311 314 317 320 323 325 326 326 325 323 321 318 314
16 13 12 11 11 11 11 11 9 7 3 0 358 357 357 357 357 356 355 354 353 354 357 1 3 3 2 1 0 360 359 358 358 359 2 6 5 1 356 352 348 342 335 329 325 321 318 316 314 312 310 309 309 310 311 313 315 318 322 324 327 328 329 330 329 327 324 321 316
18 16 14 13 13 12 12 11 9 6 4 1 359 358 357 357 358 358 358 358 359 360 3 6 8 8 8 7 6 5 6 7 8 11 14 16 17 15 11 7 3 359 353 345 339 333 328 325 321 317 313 311 312 313 315 317 319 322 325 328 330 331 331 332 331 330 327 323 319
Height
1443 1443 1442 1442 1442 1441 1441 1440 1439 1438 1438 1437 1436 1436 1435 1435 1434 1434 1433 1432 1431 1430 1430 1429 1428 1428 1427 1426 1426 1425 1424 1423 1423 1422 1421 1420 1420 1419 1418 1418 1417 1416 1416 1415 1415 1414 1414 1413 1413 1412 1412 1411 1411 1411 1411 1411 1411 1411 1411 1411 1412 1412 1412 1413 1413 1413 1414 1415 1416
1441 1441 1440 1440 1440 1439 1439 1438 1437 1436 1435 1435 1434 1434 1433 1432 1432 1431 1430 1429 1428 1427 1426 1425 1425 1424 1423 1423 1422 1421 1420 1420 1419 1418 1417 1417 1416 1415 1415 1414 1414 1413 1413 1412 1412 1411 1411 1410 1410 1410 1409 1409 1408 1408 1408 1408 1409 1409 1409 1409 1409 1409 1409 1409 1410 1410 1411 1412 1412
1439 1439 1438 1438 1437 1437 1436 1436 1435 1434 1434 1433 1432 1431 1430 1430 1429 1428 1427 1426 1425 1424 1423 1422 1421 1420 1420 1419 1418 1417 1416 1416 1415 1414 1414 1413 1412 1412 1411 1411 1410 1410 1410 1409 1409 1408 1408 1408 1407 1407 1406 1406 1406 1405 1405 1405 1406 1406 1406 1406 1406 1406 1406 1406 1407 1407 1408 1409 1409
1437 1437 1436 1436 1435 1435 1435 1434 1433 1432 1431 1430 1430 1429 1428 1427 1426 1425 1424 1423 1422 1420 1420 1418 1417 1416 1415 1415 1414 1413 1413 1412 1411 1410 1410 1410 1409 1409 1408 1408 1408 1407 1407 1406 1406 1406 1405 1405 1405 1405 1404 1404 1403 1403 1403 1403 1403 1403 1403 1403 1404 1404 1404 1404 1404 1405 1405 1405 1406
1435 1435 1435 1434 1434 1433 1432 1431 1430 1430 1429 1428 1427 1426 1425 1424 1423 1422 1420 1419 1418 1417 1416 1415 1414 1413 1412 1411 1410 1410 1409 1409 1408 1408 1407 1406 1406 1406 1406 1405 1405 1405 1404 1404 1404 1404 1404 1403 1403 1403 1402 1402 1401 1401 1401 1401 1401 1401 1401 1401 1401 1401 1401 1401 1401 1402 1402 1402 1403
1434 1433 1433 1432 1432 1431 1430 1429 1428 1427 1426 1425 1425 1423 1422 1421 1420 1418 1417 1416 1415 1413 1412 1411 1410 1410 1409 1408 1407 1407 1406 1406 1405 1405 1405 1404 1404 1404 1403 1403 1403 1402 1402 1402 1402 1402 1401 1401 1401 1400 1400 1400 1400 1399 1399 1400 1400 1399 1399 1399 1399 1399 1399 1399 1399 1399 1400 1400 1400
1432 1431 1431 1430 1429 1428 1427 1426 1425 1425 1424 1423 1422 1420 1419 1418 1417 1415 1414 1413 1411 1410 1409 1408 1407 1407 1406 1405 1405 1404 1404 1403 1403 1403 1402 1402 1401 1401 1401 1400 1400 1400 1400 1400 1400 1400 1400 1399 1399 1398 1398 1398 1397 1397 1397 1397 1398 1398 1398 1397 1397 1397 1397 1397 1397 1397 1397 1397 1398
1430 1430 1429 1428 1426 1425 1425 1424 1423 1422 1421 1420 1419 1418 1417 1415 1414 1413 1411 1410 1409 1408 1407 1406 1405 1404 1404 1403 1403 1402 1401 1401 1400 1400 1400 1399 1399 1398 1398 1398 1398 1398 1398 1398 1398 1398 1398 1398 1397 1397 1396 1396 1395 1395 1395 1395 1395 1395 1396 1396 1396 1396 1396 1396 1395 1395 1395 1395 1395
1428 1427 1426 1425 1424 1423 1422 1421 1420 1420 1419 1418 1417 1415 1414 1413 1411 1410 1409 1408 1406 1405 1405 1404 1403 1402 1402 1401 1400 1400 1399 1399 1398 1398 1397 1397 1397 1396 1396 1396 1396 1395 1395 1396 1396 1396 1396 1396 1395 1395 1394 1394 1393 1393 1393 1393 1393 1393 1393 1393 1393 1393 1393 1393 1393 1393 1393 1393 1394
1426 1425 1424 1423 1422 1421 1420 1419 1418 1418 1417 1415 1414 1413 1412 1410 1409 1408 1406 1405 1405 1403 1402 1402 1401 1400 1400 1399 1398 1398 1397 1397 1396 1396 1396 1395 1395 1395 1394 1394 1394 1394 1394 1394 1394 1394 1394 1393 1393 1392 1392 1391 1391 1390 1390 1390 1390 1390 1390 1390 1390 1390 1390 1390 1390 1390 1391 1391 1391
1424 1423 1421 1420 1420 1419 1418 1417 1416 1415 1415 1413 1412 1411 1410 1408 1407 1406 1405 1403 1402 1401 1400 1400 1399 1398 1397 1397 1396 1395 1395 1394 1394 1393 1393 1393 1392 1392 1392 1392 1391 1391 1391 1391 1391 1391 1391 1390 1390 1389 1389 1389 1389 1388 1388 1388 1388 1387 1387 1387 1387 1387 1387 1387 1388 1388 1388 1388 1389
1421 1420 1420 1419 1418 1417 1416 1415 1415 1414 1412 1411 1410 1409 1408 1406 1405 1404 1403 1401 1400 1399 1398 1397 1397 1396 1395 1394 1394 1393 1393 1392 1392 1391 1391 1390 1390 1390 1390 1389 1389 1389 1389 1388 1388 1388 1388 1387 1387 1386 1386 1386 1386 1386 1385 1385 1385 1385 1384 1384 1384 1384 1384 1385 1385 1385 1386 1386 1386
1420 1419 1418 1417 1416 1415 1415 1414 1413 1412 1410 1409 1408 1407 1405 1404 1403 1402 1400 1400 1398 1397 1396 1395 1394 1394 1393 1392 1392 1391 1390 1390 1389 1389 1388 1388 1387 1387 1387 1386 1386 1386 1386 1385 1385 1385 1385 1384 1384 1384 1383 1383 1383 1383 1383 1383 1382 1382 1382 1382 1382 1382 1382 1382 1382 1383 1383 1383 1383
1417 1417 1416 1415 1415 1414 1413 1412 1410 1409 1408 1407 1405 1404 1403 1402 1400 1400 1398 1397 1396 1395 1394 1393 1392 1392 1391 1390 1390 1389 1388 1388 1387 1386 1386 1385 1385 1385 1384 1384 1384 1384 1383 1383 1383 1383 1382 1382 1382 1381 1381 1381 1381 1381 1381 1381 1380 1380 1380 1380 1380 1380 1380 1380 1380 1380 1381 1381 1381
1415 1415 1414 1414 1413 1412 1411 1410 1408 1407 1406 1405 1403 1402 1401 1400 1398 1397 1396 1395 1394 1393 1392 1391 1390 1390 1389 1388 1388 1387 1386 1385 1385 1384 1384 1383 1383 1382 1382 1382 1381 1381 1381 1381 1381 1380 1380 1380 1380 1380 1380 1379 1379 1379 1379 1379 1379 1378 1378 1378 1378 1378 1378 1378 1378 1378 1379 1379 1379
1414 1414 1413 1412 1411 1410 1409 1407 1406 1405 1404 1402 1401 1400 1399 1397 1396 1395 1394 1393 1392 1391 1390 1389 1388 1388 1387 1386 1385 1385 1384 1383 1382 1382 1381 1381 1381 1380 1380 1380 1380 1380 1379 1379 1379 1379 1379 1378 1378 1378 1378 1377 1377 1377 1377 1377 1377 1376 1376 1376 1376 1376 1376 1376 1376 1376 1376 1376 1376
1413 1412 1411 1410 1409 1408 1407 1405 1404 1403 1402 1400 1399 1398 1396 1395 1394 1393 1392 1391 1390 1389 1388 1387 1386 1385 1385 1384 1383 1382 1382 1381 1380 1380 1380 1379 1379 1378 1378 1378 1378 1378 1377 1377 1377 1377 1377 1376 1376 1376 1376 1376 1375 1375 1375 1375 1375 1375 1375 1375 1374 1374 1374 1374 1374 1375 1375 1375 1375
1411 1410 1409 1408 1407 1406 1405 1404 1402 1401 1400 1399 1397 1396 1395 1393 1392 1391 1390 1389 1388 1387 1386 1385 1384 1383 1383 1382 1381 1380 1380 1379 1379 1378 1378 1377 1377 1377 1376 1376 1376 1376 1376 1375 1375 1375 1375 1375 1375 1375 1375 1374 1374 1374 1374 1373 1373 1373 1373 1373 1373 1372 1372 1372 1372 1373 1373 1373 1372
1409 1408 1407 1406 1405 1404 1403 1402 1400 1399 1398 1397 1395 1394 1393 1391 1390 1389 1388 1387 1386 1385 1384 1383 1382 1381 1381 1380 1379 1379 1378 1378 1377 1376 1376 1376 1375 1375 1375 1375 1374 1374 1374 1374 1373 1373 1373 1373 1373 1373 1373 1373 1372 1372 1372 1372 1371 1371 1371 1371 1371 1370 1370 1370 1370 1371 1371 1371 1370
1408 1407 1406 1405 1404 1403 1401 1400 1399 1397 1396 1395 1393 1392 1391 1390 1389 1387 1386 1385 1385 1384 1383 1382 1380 1380 1379 1378 1378 1377 1377 1376 1375 1375 1375 1374 1374 1373 1373 1373 1372 1372 1372 1372 1372 1371 1371 1371 1371 1371 1371 1371 1371 1370 1370 1370 1370 1370 1369 1369 1369 1369 1369 1369 1369 1369 1369 1369 1369
1406 1405 1404 1403 1402 1401 1400 1398 1397 1396 1394 1393 1392 1390 1389 1388 1387 1386 1385 1384 1383 1382 1381 1380 1379 1378 1377 1377 1376 1375 1375 1375 1374 1373 1373 1372 1372 1372 1371 1371 1371 1370 1370 1370 1370 1370 1370 1370 1370 1370 1370 1369 1369 1369 1369 1368 1368 1368 1367 1367 1367 1367 1367 1367 1367 1367 1367 1367 1367
1405 1404 1403 1402 1400 1399 1398 1397 1395 1394 1393 1391 1390 1389 1388 1387 1386 1385 1384 1383 1382 1381 1380 1379 1378 1377 1376 1375 1375 1374 1373 1373 1372 1372 1371 1371 1370 1370 1370 1370 1369 1369 1369 1369 1369 1368 1368 1368 1368 1368 1368 1368 1367 1367 1367 1366 1366 1365 1365 1365 1365 1365 1365 1365 1365 1365 1365 1365 1365
1403 1402 1401 1400 1399 1398 1396 1395 1394 1392 1391 1390 1389 1388 1386 1385 1384 1383 1382 1381 1380 1379 1378 1377 1376 1376 1375 1374 1373 1373 1372 1371 1371 1370 1370 1369 1369 1369 1368 1368 1368 1368 1367 1367 1367 1367 1367 1367 1366 1366 1366 1365 1365 1365 1364 1364 1364 1364 1364 1363 1363 1363 1363 1363 1363 1363 1363 1363 1362
1401 1400 1400 1398 1397 1396 1395 1393 1392 1391 1390 1389 1387 1386 1385 1384 1383 1382 1381 1380 1379 1378 1377 1376 1375 1375 1374 1373 1372 1371 1370 1370 1369 1369 1368 1368 1368 1367 1367 1367 1366 1366 1366 1366 1366 1365 1365 1365 1365 1365 1365 1365 1365 1365 1365 1364 1364 1363 1363 1362 1361 1361 1360 1360 1360 1360 1360 1360 1360
1400 1399 1398 1397 1395 1394 1393 1392 1391 1390 1388 1387 1386 1385 1384 1383 1381 1380 1379 1378 1377 1377 1376 1375 1374 1373 1372 1371 1370 1370 1369 1368 1368 1367 1367 1366 1366 1366 1366 1365 1365 1365 1365 1364 1364 1364 1364 1364 1364 1364 1363 1363 1362 1362 1361 1360 1360 1360 1359 1359 1358 1358 1357 1357 1357 1357 1357 1357 1357
1398 1397 1396 1395 1394 1393 1392 1390 1390 1388 1387 1386 1385 1384 1382 1381 1380 1379 1378 1377 1376 1375 1375 1374 1373 1372 1371 1370 1369 1368 1368 1367 1366 1366 1365 1365 1365 1365 1364 1364 1364 1363 1363 1363 1363 1363 1362 1362 1362 1361 1361 1360 1359 1359 1358 1357 1357 1357 1357 1356 1356 1355 1355 1354 1354 1354 1354 1354 1354
1397 1396 1395 1394 1393 1391 1390 1390 1389 1387 1386 1385 1384 1382 1381 1380 1379 1378 1377 1376 1375 1374 1373 1372 1371 1370 1369 1368 1368 1367 1366 1365 1365 1365 1364 1364 1363 1363 1363 1362 1362 1362 1361 1361 1361 1360 1360 1360 1360 1359 1359 1358 1357 1356 1356 1355 1355 1354 1354 1354 1353 1353 1352 1352 1351 1351 1351 1351 1350
1395 1395 1394 1392 1391 1390 1390 1389 1387 1386 1385 1384 1382 1381 1380 1379 1378 1377 1376 1375 1374 1373 1372 1371 1370 1369 1368 1367 1366 1365 1365 1364 1364 1363 1363 1362 1362 1361 1361 1360 1360 1360 1360 1359 1359 1359 1358 1358 1357 1357 1357 1356 1355 1354 1353 1353 1352 1352 1351 1351 1350 1350 1349 1349 1348 1348 1347 1347 1347
1394 1393 1392 1391 1390 1390 1389 1388 1386 1385 1384 1383 1381 1380 1379 1378 1377 1376 1375 1374 1373 1371 1370 1370 1369 1368 1367 1366 1365 1364 1364 1363 1362 1362 1361 1360 1360 1360 1359 1359 1358 1358 1357 1357 1357 1356 1356 1355 1355 1355 1354 1354 1353 1352 1351 1350 1350 1349 1348 1348 1347 1347 1346 1345 1345 1345 1344 1344 1343
1393 1392 1391 1390 1390 1389 1388 1387 1385 1384 1383 1382 1380 1379 1378 1377 1376 1375 1374 1373 1371 1370 1370 1369 1368 1367 1366 1365 1364 1363 1362 1362 1361 1360 1360 1359 1358 1358 1357 1357 1356 1356 1355 1355 1355 1354 1354 1353 1353 1352 1351 1351 1350 1350 1349 1348 1347 1346 1345 1345 1344 1344 1343 1343 1342 1341 1341 1340 1340
1392 1391 1390 1390 1389 1388 1387 1386 1385 1384 1382 1381 1380 1379 1377 1376 1375 1374 1373 1372 1370 1370 1369 1368 1367 1365 1365 1364 1363 1362 1361 1360 1360 1359 1358 1357 1356 1356 1355 1355 1354 1354 1354 1353 1353 1352 1351 1351 1350 1350 1349 1349 1348 1347 1346 1345 1345 1344 1343 1342 1341 1341 1340 1340 1339 1338 1338 1337 1336
1391 1390 1390 1389 1388 1387 1386 1385 1384 1383 1381 1380 1379 1378 1377 1376 1375 1374 1372 1371 1370 1369 1368 1367 1366 1365 1364 1363 1362 1361 1360 1359 1358 1357 1356 1356 1355 1354 1354 1353 1352 1352 1351 1351 1350 1350 1349 1349 1348 1347 1347 1346 1345 1345 1344 1343 1342 1341 1340 1340 1339 1338 1338 1337 1336 1335 1335 1334 1334
1390 1390 1389 1388 1388 1387 1386 1385 1383 1382 1381 1380 1379 1378 1377 1375 1374 1373 1372 1370 1369 1368 1367 1366 1365 1364 1363 1362 1361 1360 1359 1358 1357 1356 1355 1355 1354 1353 1352 1351 1351 1350 1350 1349 1349 1348 1347 1347 1346 1345 1345 1344 1343 1343 1342 1341 1340 1339 1338 1337 1337 1336 1335 1335 1334 1333 1332 1331 1330
1390 1389 1389 1388 1387 1386 1385 1384 1383 1382 1381 1380 1379 1378 1376 1375 1374 1373 1371 1370 1369 1368 1367 1366 1365 1364 1363 1361 1360 1359 1358 1357 1356 1355 1354 1353 1353 1352 1351 1350 1350 1349 1349 1348 1347 1347 1346 1345 1345 1344 1343 1343 1342 1341 1340 1339 1338 1337 1336 1335 1335 1334 1334 1333 1331 1330 1329 1328 1327
1389 1389 1388 1388 1387 1386 1385 1384 1383 1382 1380 1380 1379 1378 1376 1375 1374 1372 1371 1370 1369 1368 1367 1366 1365 1364 1362 1361 1360 1359 1357 1356 1355 1354 1353 1352 1352 1351 1350 1349 1349 1348 1348 1347 1346 1345 1345 1344 1343 1342 1342 1341 1340 1339 1338 1338 1337 1336 1335 1334 1333 1332 1331 1330 1329 1327 1326 1325 1323
1389 1388 1388 1387 1386 1385 1385 1384 1383 1381 1380 1380 1379 1377 1376 1375 1374 1372 1371 1370 1368 1367 1366 1365 1364 1363 1362 1361 1360 1358 1357 1356 1355 1354 1353 1352 1351 1350 1349 1349 1348 1347 1347 1346 1345 1344 1344 1343 1342 1341 1340 1340 1339 1338 1337 1336 1335 1334 1333 1332 1331 1330 1329 1328 1326 1325 1323 1322 1320
1388 1388 1388 1387 1386 1385 1385 1383 1382 1381 1380 1380 1379 1378 1376 1375 1374 1373 1371 1370 1368 1367 1366 1365 1364 1363 1361 1360 1359 1358 1357 1355 1354 1353 1352 1351 1350 1350 1349 1348 1347 1346 1346 1345 1344 1343 1343 1342 1341 1340 1340 1339 1338 1337 1336 1335 1334 1333 1332 1330 1329 1328 1327 1325 1324 1323 1321 1320 1319
1388 1388 1388 1387 1386 1385 1384 1383 1382 1381 1380 1380 1379 1378 1376 1375 1374 1373 1371 1370 1368 1367 1365 1365 1363 1362 1361 1360 1359 1358 1356 1355 1354 1353 1352 1351 1350 1349 1348 1347 1346 1346 1345 1344 1343 1342 1342 1341 1340 1340 1339 1338 1337 1335 1335 1334 1333 1331 1330 1329 1327 1326 1325 1324 1322 1321 1319 1318 1317
1388 1388 1387 1387 1386 1385 1385 1383 1382 1381 1380 1380 1379 1378 1376 1375 1374 1373 1372 1370 1369 1367 1366 1365 1364 1362 1361 1360 1359 1357 1356 1355 1354 1353 1352 1351 1350 1349 1348 1347 1346 1345 1344 1344 1343 1342 1341 1340 1339 1339 1338 1337 1336 1335 1334 1333 1331 1330 1329 1328 1326 1325 1323 1322 1321 1319 1318 1316 1315
1388 1388 1387 1387 1386 1385 1385 1384 1383 1382 1381 1380 1379 1378 1377 1375 1375 1373 1372 1371 1369 1368 1366 1365 1364 1363 1361 1360 1359 1357 1356 1355 1354 1353 1352 1351 1350 1349 1348 1347 1346 1345 1344 1343 1342 1341 1340 1339 1339 1338 1337 1336 1335 1334 1333 1332 1331 1329 1328 1326 1325 1323 1321 1320 1319 1317 1316 1315 1314
1389 1388 1388 1387 1386 1385 1385 1384 1383 1382 1381 1380 1379 1378 1377 1376 1375 1374 1372 1371 1370 1368 1366 1365 1364 1363 1361 1360 1359 1357 1356 1355 1354 1353 1352 1351 1350 1349 1347 1346 1345 1344 1343 1342 1341 1340 1340 1339 1338 1337 1336 1335 1334 1333 1332 1331 1330 1328 1327 1325 1324 1322 1320 1318 1317 1315 1315 1313 1312